www.pogodaiklimat.ru

Погода и климат >> Архив погоды >> Россия >> Красноярский край >> Игарка


АРХИВ ПОГОДЫ в Игарке

Время (UTC), дата Ветер
(напр.,м/с)
 
Видим.   Явления Облачность Т
(С)
Тd
(С)
f
(%)
Тe
(С)
Тes
(С)
Комфортность P
(гПа)
Po
(гПа)
Тmin
(С)
Tmax
(С)
R
(мм)
R24
(мм)
S
(см)
06 10.07 СЗ 3 20 км 9/8 600 м
[Sc Ac trans]
+12.8 +7.1 68 +12 +13 1006.1 1002.8
09 10.07 С 3 20 км 9/8 600 м
[Sc Ac trans]
+15.0 +6.8 58 +14 +15 1006.8 1003.5
12 10.07 СЗ 2 20 км 9/8 600 м
[Sc Ac trans]
+14.7 +5.2 53 +15 +15 1008.5 1005.1 +16.3
15 10.07 С 1 20 км 4/3 600 м
[Sc Ac trans]
+13.1 +8.9 76 +13 +13 1009.5 1006.1
18 10.07 СЗ 2 20 км 3/3 600 м
[Sc]
+8.9 +5.1 77 +7 +7 1010.4 1007.0
21 10.07 С 2 20 км 3/0
[Ci fib]
+8.5 +5.4 81 +7 +7 1011.5 1008.1
00 11.07 С 2 20 км ясно +11.8 +6.1 68 +11 +13 1012.4 1009.0 +8.2
03 11.07 С 4 20 км 6/0
[Ci fib]
+14.8 +5.0 52 +14 +18 1012.8 1009.4
06 11.07 С 1 20 км 3/0
[Ci fib]
+16.8 +6.7 51 +18 +30 опасность
простуды
1012.8 1009.5
09 11.07 СЗ 1 20 км 8/0
[Ac trans Ci fib]
+18.2 +7.6 50 +19 +26 1013.1 1009.8
12 11.07 Ю 1 20 км 8/0
[Ac trans Ci fib]
+19.2 +9.4 53 +21 +23 комфорт 1012.6 1009.3 +22.1
15 11.07 В 1 20 км 9/0
[Ac trans]
+16.6 +12.1 75 +17 +18 1012.5 1009.2
18 11.07 ЮВ 3 20 км 9/0
[Ac trans]
+15.1 +9.3 68 +14 +14 1012.1 1008.7
21 11.07 ЮВ 4 20 км 9/4 1000 м
[Sc Ac trans]
+16.2 +9.9 66 +16 +16 1010.4 1007.1
00 12.07 ЮВ 4 20 км слаб. ливневой дождь 9/8 600 м
[Cb cap Ac cuf]
+15.4 +13.4 88 +14 +15 1009.1 1005.7 +14.8 0.6
03 12.07 Ю 5
{12}
20 км {ливн. осадки} 9/8 600 м
[Cb cap Ac cuf]
+17.0 +14.9 87 +16 +17 1008.4 1005.1
06 12.07 Ю 6
{12}
20 км {ливн. осадки} 9/8 1000 м
[Cb cap Ac cuf Ci ing]
+20.4 +12.2 59 +22 +23 комфорт 1007.9 1004.6
09 12.07 Ю 3
{13}
20 км гроза без осадков 9/8 600 м
[Cb cap Ac cuf Ci ing]
+21.8 +17.6 77 +26 +27 душно 1006.9 1003.7
12 12.07 З 3 20 км {гроза} 8/8 600 м
[Cb cap Ci ing]
+25.5 +12.6 45 +27 +28 жарко 1008.8 1005.6 +26.5
15 12.07 Ю 1 20 км 6/3 600 м
[Cb cap Ci ing]
+21.6 +16.2 71 +25 +25 комфорт 1008.9 1005.7
18 12.07 ЮЗ 1 20 км 8/4 600 м
[Cb cap Ac cuf Ci ing]
+18.5 +12.2 67 +20 +20 1009.9 1006.6
21 12.07 ЮЗ 1 20 км 4/3 600 м
[Cb cap Ac cuf]
+15.6 +12.1 80 +16 +16 1010.5 1007.1
00 13.07 ЮВ 1 20 км 6/4 600 м
[Cb cap Ac cuf]
+17.2 +13.9 81 +18 +19 1010.8 1007.5 +15.4
03 13.07 З 4 4000 м слаб. ливневой дождь 9/8 600 м
[Cb cap Ac cuf]
+20.0 +13.2 65 +22 +23 комфорт 1010.6 1007.3
06 13.07 З 4 20 км {ливн. осадки} 6/6 600 м
[Cb cap]
+21.9 +9.7 46 +23 +26 комфорт 1009.8 1006.6
09 13.07 З 6
{11}
20 км 6/4 600 м
[Sc diur, vesp Ci fib]
+18.6 +10.7 60 +19 +20 1011.9 1008.6
12 13.07 З 4
{11}
20 км 9/8 600 м
[Sc Ac trans]
+13.5 +9.8 78 +12 +12 1014.0 1010.6 +22.4 0.0
15 13.07 СЗ 4 20 км 9/9 600 м
[Cb cap]
+11.6 +9.0 84 +9 +9 1015.0 1011.6
18 13.07 СЗ 4 20 км 9/9 600 м
[Sc diur, vesp]
+10.5 +8.5 87 +8 +8 1016.0
21 13.07 СЗ 3 10 км слаб. ливневой дождь 9/9 300 м
[Cb cap]
+10.1 +9.3 95 +8 +8 1016.4 1013.0
00 14.07 С 2 20 км {ливн. осадки} 9/9 300 м
[Cb cap]
+10.9 +10.1 95 +9 +10 1016.9 1013.5 +9.4 0.4
03 14.07 СЗ 3 20 км 9/9 300 м
[Cb cap]
+13.1 +9.8 80 +12 +12 1018.7 1015.3
06 14.07 С 3 20 км 9/9 300 м
[Cb cap]
+14.6 +10.4 76 +14 +15 1018.7 1015.3
09 14.07 СЗ 2 20 км 8/8 600 м
[Sc]
+17.3 +11.4 68 +18 +19 1017.9 1014.6
12 14.07 З 2 20 км 6/1 600 м
[Sc Ac trans]
+18.7 +12.7 68 +20 +22 1017.8 1014.5 +20.4
15 14.07 СЗ 1 20 км 8/0
[Ac trans Ci fib]
+18.4 +13.7 74 +20 +20 1017.6 1014.3
18 14.07 С 2 20 км 8/0
[Ac trans Ci fib]
+10.5 +9.5 94 +9 +9 1017.7 1014.3
21 14.07 штиль 0 20 км 9/0
[Ac trans Ci fib]
+9.9 +8.9 93 +9 +9 1017.3 1013.9
00 15.07 Ю 2 10 км дымка 6/0
[Ac trans Ci fib]
+15.3 +13.3 88 +15 +17 1017.4 1014.0 +9.1
03 15.07 ЮВ 2 20 км 9/0
[Ac trans Ci fib]
+18.4 +13.9 75 +19 +24 1016.8 1013.5
06 15.07 ЮВ 4 20 км 9/0
[Ac trans Ci fib]
+22.2 +14.4 61 +25 +30 комфорт 1015.3 1012.1
09 15.07 Ю 4 20 км 3/0
[Ci fib]
+24.8 +14.4 52 +27 +32 жарко 1014.6 1011.4
12 15.07 Ю 3 20 км 3/0
[Ci fib]
+24.6 +15.5 57 +28 +30 душно 1014.4 1000.2 +25.5
15 15.07 Ю 2 20 км ясно +22.8 +15.1 62 +27 +27 душно 1014.6 1011.4
18 15.07 Ю 1 20 км ясно +19.3 +16.3 83 +22 +22 комфорт 1015.0 1011.7
21 15.07 Ю 2 20 км ясно +18.1 +15.7 86 +19 +19 1015.3 1012.0
00 16.07 Ю 2 20 км 3/0
[Ac trans]
+20.2 +16.7 80 +20 +21 1015.7 +17.0
03 16.07 Ю 3 20 км 3/1 600 м
[Cu med, cong Ci fib]
+23.6 +16.8 66 +27 +32 жарко 1015.3 1012.1
06 16.07 Ю 3 20 км ясно +27.4 +17.6 55 +32 +40 очень
душно
1014.6 1011.4
09 16.07 Ю 3 20 км 3/3 600 м
[Cu med, cong]
+28.6 +18.3 54 +33 +38 очень
душно
1013.8 1010.6
12 16.07 Ю 2 20 км 4/4 600 м
[Sc]
+27.8 +18.1 56 +33 +34 очень
душно
1013.3 1010.1 +29.5
15 16.07 Ю 1 20 км 6/4 600 м
[Sc Ac trans]
+24.9 +18.3 67 +29 +30 душно 1013.3 1010.1
18 16.07 С 2 20 км 1/0
[Ac trans]
+22.7 +19.4 82 +29 +29 очень
душно
1013.7 1010.5
21 16.07 С 2 20 км 1/0
[Ac trans]
+19.5 +17.0 85 +22 +22 комфорт 1014.6 1011.3
00 17.07 С 2 20 км 3/3 600 м
[Cu hum]
+21.1 +17.2 78 +25 +26 комфорт 1014.7 1011.5 +18.9
03 17.07 СВ 3 20 км 1/0
[Ci fib]
+23.8 +15.5 60 +27 +33 жарко 1014.9 1011.7

 

Местоположение метеостанции Игарка (Красноярский край, Россия): широта 67.47 долгота 86.57 высота над уровнем моря 28 м.

В архиве по умолчанию представлена погода в Игарке за последнюю неделю. Архивные данные за месяц целиком и за предыдущие месяцы, начиная с января 2011 года, Вы можете получить, выбрав интересующий диапазон дат из раскрывающегося списка и нажав кнопку "Ввод!".


*Определитесь, кто Вы:
робот инопланетянин человек

Внимание! Время в таблицах - всемирное. Для получения местного времени необходимо прибавить поправку, которая равна 7 ч.

Смотрите также архив погоды в соседних городах и на ближайших метеорологических станциях:

Погода в Горбиачине (Красноярский край, Россия) (54 км)
Погода в Снежногорске (Красноярский край, Россия) (86 км)
Погода в Светлогорске (Красноярский край, Россия) (98 км)
Погода в Курейке (Красноярский край, Россия) (115 км)
Погода в Потапово (Красноярский край, Россия) (134 км)
Погода в Советской Речке (Красноярский край, Россия) (140 км)
Погода в Туруханске (Красноярский край, Россия) (197 км)
Погода в Норильске (Красноярский край, Россия) (219 км)
Погода в Большом Пороге (Эвенкия, Россия) (256 км)
Погода в Красноселькупске (Ямало-Ненецкий АО, Россия) (268 км)

Пояснения к столбцам:

Ветер - указаны скорость ветра в м/с - средняя за 10 мин, порывы в срок и между сроками (в фигурных скобках) и направление, откуда дует ветер: С - северный, СВ - северо-восточный, В - восточный, ЮВ - юго-восточный, Ю - южный, ЮЗ - юго-западный, З - западный, СЗ - северо-западный.
Видимость - горизонтальная дальность видимости в метрах или километрах. При видимости от 1 до 10 км при отсутствии осадков обычно наблюдается дымка, при ухудшении видимости до 1 км и менее - туман. В сухую погоду видимость может ухудшаться дымом, пылью или мглою.
Явления - указаны атмосферные явления, наблюдавшиеся в срок или в последний час перед сроком; фигурными скобками обозначены явления, наблюдавшиеся между сроками (за 1-3 часа до срока); квадратными скобками обозначены град или гололедные отложения с указанием их диаметра в мм.
Облачность - указаны через наклонную черту общая и нижняя облачность в баллах и высота нижней границы облаков в метрах; квадратными скобками обозначены формы облаков: Ci - перистые, Cs - перисто-слоистые, Cc - перисто-кучевые, Ac - высококучевые, As - высокослоистые, Sc - слоисто-кучевые, Ns - слоисто-дождевые, Cu - кучевые, Cb - кучево-дождевые. Подробнее классификацию облаков см. в Атласе облаков (PDF).
T - Температура воздуха - температура, измеренная на высоте 2 м над землей.
Td - Температура точки росы - температура, при понижении до которой содержащийся в воздухе водяной пар достигнет насыщения.
f - Относительная влажность воздуха - влажноcть воздуха, измеренная на высоте 2 м над землей.
Te - Эффективная температура - температура, которую ощущает одетый по сезону человек в тени. Характеристика душности погоды. При расчете учитывается влияние влажности воздуха и скорости ветра на теплоощущения человека.
Tes - Эффективная температура на солнце - температура, которую ощущает человек, с поправкой на солнечный нагрев. Характеристика знойности погоды. Зависит от высоты солнца над горизонтом, облачности и скорости ветра. Ночью, в пасмурную погоду, а также при ветре 12 м/с и более поправка равна нулю.
P - Атмосферное давление - приведенное к уровню моря атмосферное давление.
Po - Атмосферное давление - измеренное на уровне метеостанции атмосферное давление.
Tmin - Минимальная температура - минимум температуры воздуха на высоте 2 м над землей.
Tmax - Максимальная температура - максимум температуры воздуха на высоте 2 м над землей.
R - Количество осадков - Количество выпавших осадков за период времени, мм. При наведении курсора мыши на число - период времени, за который выпало указанное количество осадков.
R24 - Количество осадков - Количество выпавших осадков за 24 часа, мм.
S - Снежный покров - Высота снежного покрова, см. При наведении курсора мыши на число - состояние снежного покрова и степень покрытия местности в баллах.